Date String (YYYY-MM-DD hh:mm:ss) UTC,Instrument flags,absolute air pressure of the measurement (hPa),sample flow rate (lpm),inlet stack bypass flow (lpm),air temperature of the measurement (°C),ambient temperature measured by the external sensor (°C),aerosol sample conditioner tube jacket temperature (°C),OPC LED temperature (°C),internal box temperature (°C),relative humidity of the measurement (%),span deviation,mass concentration of particles derived from Lorenz-Mie calculation of OPC scattering (μg/m³),mass concentration of particles derived from Lorenz-Mie calculation of OPC scattering (μg/m³),mass concentration of particles derived from Lorenz-Mie calculation of OPC scattering (μg/m³)
DateTimeUTC,F1_M11,P_M11,Q1_M11,Q2_M11,T1_M11,T2_M11,T3_M11,T4_M11,T5_M11,U1_M11,ZSPAN_M11,X0_M11,X2_M11,X1_M11
2023-07-14 15:00:00,SystemResetWarning,0833.7,5.00,000.00,029.3,027.9,000.0,037.7,031.0,32.6,-002.9,0023.27,0006.66,0005.08
2023-07-14 15:01:00,SystemResetWarning,0833.6,5.01,000.00,029.3,028.1,000.0,037.7,031.0,32.3,-003.1,0023.52,0006.71,0005.11
2023-07-14 15:02:00,SystemResetWarning,0833.7,5.00,000.00,029.4,028.0,000.0,037.7,031.0,32.4,-002.9,0023.72,0006.78,0005.14
2023-07-14 15:03:00,SystemResetWarning,0833.7,4.99,000.00,029.4,026.6,000.0,037.6,030.9,32.4,-003.2,0024.22,0006.80,0005.18
2023-07-14 15:04:00,SystemResetWarning,0833.7,5.01,000.00,029.3,025.3,000.0,037.5,030.7,32.5,-003.2,0025.03,0006.90,0005.22
2023-07-14 15:05:00,SystemResetWarning,0833.6,5.01,000.00,029.2,025.2,000.0,037.5,030.5,32.8,-003.7,0026.42,0006.91,0005.24
2023-07-14 15:06:00,SystemResetWarning,0833.7,4.99,000.00,029.1,025.5,000.0,037.5,030.4,33.1,-003.7,0024.58,0006.89,0005.27
2023-07-14 15:07:00,SystemResetWarning,0833.7,4.99,000.00,029.1,025.9,000.0,037.6,030.4,33.6,-003.5,0022.33,0006.88,0005.27
2023-07-14 15:08:00,SystemResetWarning,0833.7,5.00,000.00,029.1,026.3,000.0,037.6,030.5,33.2,-003.1,0021.02,0006.91,0005.28
2023-07-14 15:09:00,SystemResetWarning,0833.7,5.01,000.00,029.1,026.7,000.0,037.6,030.6,33.1,-002.7,0020.05,0006.90,0005.26
2023-07-14 15:10:00,SystemResetWarning,0833.7,5.01,000.00,029.1,027.0,000.0,037.6,030.7,33.2,-002.4,0020.73,0006.91,0005.27
2023-07-14 15:11:00,SystemResetWarning,0833.7,4.99,000.00,029.1,027.3,000.0,037.6,030.7,33.3,-002.3,0021.31,0006.92,0005.28
2023-07-14 15:12:00,SystemResetWarning,0833.7,5.00,000.00,029.2,027.5,000.0,037.6,030.8,33.5,-002.4,0021.49,0006.94,0005.29
2023-07-14 15:13:00,SystemResetWarning,0833.7,4.99,000.00,029.2,027.7,000.0,037.6,030.9,33.3,-002.7,0021.34,0006.92,0005.29
2023-07-14 15:14:00,SystemResetWarning,0833.7,5.00,000.00,029.2,027.9,000.0,037.7,030.9,33.2,-002.8,0020.90,0006.91,0005.29
2023-07-14 15:15:00,SystemResetWarning,0833.8,5.01,000.00,029.3,028.0,000.0,037.7,031.0,33.6,-003.0,0021.88,0006.89,0005.28
2023-07-14 15:16:00,SystemResetWarning,0833.8,5.00,000.00,029.3,027.9,000.0,037.7,031.0,34.0,-003.0,0021.65,0006.91,0005.28
2023-07-14 15:17:00,SystemResetWarning,0833.8,4.99,000.00,029.3,026.3,000.0,037.6,030.8,34.0,-002.4,0023.04,0006.92,0005.28
2023-07-14 15:18:00,SystemResetWarning,0833.8,5.00,000.00,029.2,025.2,000.0,037.5,030.6,34.4,-001.7,0022.95,0006.92,0005.29
2023-07-14 15:19:00,SystemResetWarning,0833.8,5.01,000.00,029.1,025.2,000.0,037.4,030.4,33.9,-001.5,0023.43,0006.95,0005.31
2023-07-14 15:20:00,SystemResetWarning,0833.8,4.99,000.00,029.0,025.6,000.0,037.5,030.3,33.5,-002.0,0024.07,0007.04,0005.35
2023-07-14 15:21:00,SystemResetWarning,0833.7,5.00,000.00,029.0,026.0,000.0,037.5,030.4,33.9,-002.6,0023.98,0007.07,0005.38
2023-07-14 15:22:00,SystemResetWarning,0833.8,5.01,000.00,029.0,026.4,000.0,037.5,030.5,34.0,-003.0,0024.54,0007.09,0005.42
2023-07-14 15:23:00,SystemResetWarning,0833.8,5.00,000.00,029.0,026.8,000.0,037.5,030.6,34.3,-002.5,0025.61,0007.08,0005.44
2023-07-14 15:24:00,SystemResetWarning,0833.8,5.01,000.00,029.1,027.1,000.0,037.5,030.7,34.6,-002.1,0026.40,0007.14,0005.46
2023-07-14 15:25:00,SystemResetWarning,0833.9,4.99,000.00,029.2,027.4,000.0,037.5,030.8,34.4,-002.2,0027.04,0007.23,0005.49
2023-07-14 15:26:00,SystemResetWarning,0833.8,4.99,000.00,029.3,027.6,000.0,037.6,030.9,33.6,-002.7,0026.29,0007.29,0005.53
2023-07-14 15:27:00,SystemResetWarning,0833.9,5.00,000.00,029.4,027.8,000.0,037.6,030.9,32.8,-002.4,0026.29,0007.32,0005.56
2023-07-14 15:28:00,SystemResetWarning,0833.9,5.00,000.00,029.4,028.0,000.0,037.7,031.0,33.1,-002.9,0024.93,0007.37,0005.61
2023-07-14 15:29:00,SystemResetWarning,0833.9,5.00,000.00,029.5,027.7,000.0,037.6,031.0,33.2,-003.4,0025.83,0007.42,0005.65
2023-07-14 15:30:00,SystemResetWarning,0833.9,5.00,000.00,029.5,026.2,000.0,037.5,030.8,33.7,-003.1,0025.70,0007.39,0005.69
2023-07-14 15:31:00,SystemResetWarning,0833.9,5.02,000.00,029.4,025.3,000.0,037.5,030.6,32.2,-003.1,0025.23,0007.39,0005.74
2023-07-14 15:32:00,SystemResetWarning,0833.9,4.99,000.00,029.3,025.4,000.0,037.5,030.5,32.4,-002.8,0024.61,0007.40,0005.78
2023-07-14 15:33:00,SystemResetWarning,0834.0,4.99,000.00,029.3,025.8,000.0,037.5,030.4,32.7,-002.3,0024.27,0007.47,0005.81
2023-07-14 15:34:00,SystemResetWarning,0833.9,5.01,000.00,029.3,026.2,000.0,037.6,030.5,32.6,-002.6,0024.40,0007.55,0005.84
2023-07-14 15:35:00,SystemResetWarning,0834.0,5.01,000.00,029.3,026.6,000.0,037.6,030.6,32.5,-002.5,0024.36,0007.59,0005.88
2023-07-14 15:36:00,SystemResetWarning,0834.0,5.00,000.00,029.3,026.9,000.0,037.6,030.7,32.0,-002.6,0025.16,0007.60,0005.90
2023-07-14 15:37:00,SystemResetWarning,0834.0,4.99,000.00,029.3,027.2,000.0,037.6,030.7,32.3,-002.2,0025.94,0007.61,0005.89
2023-07-14 15:38:00,SystemResetWarning,0834.0,4.99,000.00,029.3,027.5,000.0,037.7,030.8,31.8,-002.1,0025.28,0007.61,0005.90
2023-07-14 15:39:00,SystemResetWarning,0834.0,5.01,000.00,029.4,027.7,000.0,037.7,030.9,31.9,-002.1,0025.23,0007.59,0005.89
2023-07-14 15:40:00,SystemResetWarning,0834.0,5.00,000.00,029.4,027.6,000.0,037.7,030.9,31.6,-002.3,0024.67,0007.56,0005.90
2023-07-14 15:41:00,SystemResetWarning,0834.0,4.98,000.00,029.4,026.3,000.0,037.6,030.7,32.6,-002.7,0024.43,0007.51,0005.87
2023-07-14 15:42:00,SystemResetWarning,0833.9,5.02,000.00,029.3,025.2,000.0,037.5,030.5,32.3,-002.3,0024.34,0007.45,0005.85
2023-07-14 15:43:00,SystemResetWarning,0834.0,5.00,000.00,029.2,025.2,000.0,037.4,030.4,32.3,-002.5,0023.81,0007.41,0005.82
2023-07-14 15:44:00,SystemResetWarning,0834.1,5.00,000.00,029.1,025.5,000.0,037.5,030.3,33.3,-002.7,0022.93,0007.34,0005.82
2023-07-14 15:45:00,SystemResetWarning,0834.0,5.00,000.00,029.1,026.0,000.0,037.5,030.4,33.8,-002.3,0021.70,0007.33,0005.83
2023-07-14 15:46:00,SystemResetWarning,0834.0,5.01,000.00,029.1,026.4,000.0,037.5,030.5,33.9,-002.0,0019.87,0007.24,0005.84
2023-07-14 15:47:00,SystemResetWarning,0833.9,4.97,000.00,029.1,026.7,000.0,037.5,030.5,35.0,-002.2,0018.55,0007.20,0005.85
2023-07-14 15:48:00,SystemResetWarning,0834.0,5.03,000.00,029.2,027.1,000.0,037.6,030.7,36.0,-002.0,0017.25,0007.13,0005.88
2023-07-14 15:49:00,SystemResetWarning,0834.0,4.99,000.00,029.4,027.3,000.0,037.6,030.8,34.7,-001.7,0016.76,0007.11,0005.89
2023-07-14 15:50:00,SystemResetWarning,0834.1,4.99,000.00,029.6,027.6,000.0,037.6,031.0,34.3,-000.5,0016.93,0007.08,0005.89
2023-07-14 15:51:00,SystemResetWarning,0834.1,5.01,000.00,029.8,027.8,000.0,037.7,031.0,33.8,0000.2,0016.76,0007.08,0005.88
2023-07-14 15:52:00,SystemResetWarning,0834.1,5.01,000.00,029.9,028.0,000.0,037.7,031.0,34.1,-000.2,0016.36,0007.12,0005.90
2023-07-14 15:53:00,SystemResetWarning,0834.1,4.99,000.00,029.9,027.6,000.0,037.7,031.1,33.9,-001.4,0017.10,0007.18,0005.91
2023-07-14 15:54:00,SystemResetWarning,0834.1,4.99,000.00,030.0,026.1,000.0,037.7,030.9,33.7,-001.5,0017.82,0007.21,0005.92
2023-07-14 15:55:00,SystemResetWarning,0834.1,5.01,000.00,029.9,025.2,000.0,037.6,030.7,33.8,-002.0,0017.69,0007.22,0005.96
2023-07-14 15:56:00,SystemResetWarning,0834.1,5.01,000.00,029.8,025.2,000.0,037.6,030.5,33.6,-002.0,0017.46,0007.31,0006.04
2023-07-14 15:57:00,SystemResetWarning,0834.0,5.01,000.00,029.7,025.6,000.0,037.7,030.4,34.2,-002.1,0018.49,0007.42,0006.12
2023-07-14 15:58:00,SystemResetWarning,0834.0,5.00,000.00,029.7,026.0,000.0,037.8,030.5,34.1,-001.7,0020.76,0007.53,0006.19
2023-07-14 15:59:00,SystemResetWarning,0834.0,5.00,000.00,029.7,026.5,000.0,037.8,030.6,34.2,-001.3,0021.21,0007.64,0006.26
